www.pogodaiklimat.ru

Погода и климат >> Архив погоды >> Боливия >> San Matias


ПОГОДА в San Matias

  • Прогноз погоды в San Matias
  • Монитор погоды в San Matias
  • Климат города

АРХИВ ПОГОДЫ в San Matias

Время (UTC), дата Ветер
(напр.,м/с)
 
Видим.   Явления Облачность Т
(С)
Тd
(С)
f
(%)
Тe
(С)
Тes
(С)
Комфортность P
(гПа)
Po
(гПа)
Тmin
(С)
Tmax
(С)
R
(мм)
R24
(мм)
S
(см)
12 18.04 штиль 0 30 км 10/0
[Ci]
+23.6 +22.8 95 +31 +36 очень
душно
1016.4 1006.0 +21.5
15 18.04 штиль 0 30 км 10/9 450 м
[Sc Ci]
+27.0 +23.6 82 +37 +39 очень
душно
1017.4 1006.0
18 18.04 штиль 0 30 км 10/6 500 м
[Cu med, cong Ac trans Ci]
+29.6 +24.1 72 +41 +44 опасность
перегрева
1014.0 1003.5
21 18.04 штиль 0 30 км 4/4 500 м
[Cu hum]
+29.2 +23.8 73 +40 +41 очень
душно
1012.5 1002.0 +31.0
12 19.04 штиль 0 30 км 9/0 2000 м
[Ac und]
+24.0 +22.6 92 +31 +34 очень
душно
1015.5 1004.5 +22.6
15 19.04 штиль 0 30 км 10/0 2000 м
[As op]
+27.0 +23.6 82 +37 +41 очень
душно
1015.5 1005.0
18 19.04 штиль 0 30 км 9/4 500 м
[Cu hum Ac und]
+29.0 +24.3 76 +41 +45 опасность
перегрева
1013.4 1002.0
21 19.04 штиль 0 30 км 8/0 2000 м
[Ac und]
+29.0 +24.4 76 +41 +41 опасность
перегрева
1010.5 1000.0 +32.0
12 20.04 штиль 0 30 км 8/0 2000 м
[Ac und]
+24.0 +23.3 96 +32 +35 очень
душно
1014.4 1004.0 +22.5
15 20.04 Ю 5 30 км 10/10 450 м
[Sc]
+22.6 +20.3 87 +29 +29 очень
душно
1016.5 1006.0
21 20.04 Ю 3 30 км 10/10 450 м
[Sc]
+22.0 +20.5 91 +28 +28 душно 1012.0 1001.4 +26.0
12 21.04 штиль 0 30 км 10/10 240 м
[Sc]
+22.0 +21.2 95 +28 +28 душно 1015.4 1004.6 +20.2 3
15 21.04 штиль 0 30 км 10/10 450 м
[Sc]
+26.2 +22.5 80 +34 +34 очень
душно
1016.4 1005.8
18 21.04 штиль 0 30 км 4/4 500 м
[Cu hum]
+31.0 +25.1 71 +45 +54 опасность
перегрева
1013.5 1002.5
21 21.04 штиль 0 30 км 4/4 500 м
[Cu hum]
+29.4 +24.6 75 +42 +42 опасность
перегрева
1012.4 1001.0 +32.0
12 22.04 штиль 0 30 км 10/10 240 м
[Sc]
+23.5 +22.1 92 +30 +30 очень
душно
1017.5 1006.5 +22.0
15 22.04 Ю 3 30 км 10/10 300 м
[Sc]
+23.7 +22.0 90 +31 +31 очень
душно
1018.4 1007.5
18 22.04 Ю 3 30 км {дождь} 10/10 400 м
[Sc]
+25.0 +22.2 84 +32 +32 очень
душно
1016.4 1005.5 6
21 22.04 Ю 4 30 км 10/0 2000 м
[As op]
+25.5 +22.0 81 +33 +33 очень
душно
1016.0 1005.0 +27.0
12 23.04 штиль 0 30 км 10/10 700 м
[Sc]
+24.0 +21.9 88 +31 +31 очень
душно
1018.4 1007.0 +22.0 6
15 23.04 штиль 0 30 км 4/0 2000 м
[Ac trans]
+28.6 +22.3 69 +37 +54 опасность
солнечного
удара
1019.0 1008.0
18 23.04 штиль 0 30 км 10/10 500 м
[Sc]
+30.0 +23.3 67 +40 +40 очень
душно
1015.4 1004.5
12 24.04 штиль 0 30 км 5/0 2000 м
[Ac trans]
+24.2 +23.2 94 +32 +36 очень
душно
1016.0 1005.0 +22.0
15 24.04 штиль 0 30 км 8/8 500 м
[Cu med, cong]
+29.7 +23.5 69 +40 +44 очень
душно
1016.4 1005.5
18 24.04 штиль 0 30 км 5/5 500 м
[Cu hum]
+32.0 +24.7 65 +45 +53 опасность
перегрева
1012.4 1001.6
21 24.04 штиль 0 30 км 8/6 500 м
[Cb cap Ci]
+30.7 +25.2 73 +45 +45 опасность
перегрева
1010.5 1000.0 +33.0

 

Местоположение метеостанции San Matias (Боливия): широта -16.33 долгота -58.38 высота над уровнем моря 124 м.

В архиве по умолчанию представлена погода в San Matias за последнюю неделю. Архивные данные за месяц целиком и за предыдущие месяцы, начиная с января 2011 года, Вы можете получить, выбрав интересующий диапазон дат из раскрывающегося списка и нажав кнопку "Ввод!".

Внимание! Время в таблицах - всемирное. Для получения местного времени необходимо прибавить поправку, которая в San Matias равна -4 ч.

Смотрите также архив погоды в соседних городах и на ближайших метеорологических станциях:

Погода в Caceres (Бразилия) (81 км)
Погода в Cuiaba (Бразилия) (255 км)
Погода в Robore (Боливия) (265 км)
Погода в San Ignacio De Vela (Боливия) (275 км)
Погода в Diamantino (Бразилия) (298 км)
Погода в San Jose De Chiquit (Боливия) (299 км)
Погода в Puerto Suarez (Боливия) (301 км)
Погода в Concepcion (Боливия) (388 км)
Погода в Poxoreo (Бразилия) (431 км)
Погода в San Javier (Боливия) (436 км)

Пояснения к столбцам:

Ветер - указаны скорость ветра в м/с - средняя за 10 мин, порывы в срок и между сроками (в фигурных скобках) и направление, откуда дует ветер: С - северный, СВ - северо-восточный, В - восточный, ЮВ - юго-восточный, Ю - южный, ЮЗ - юго-западный, З - западный, СЗ - северо-западный.
Видимость - горизонтальная дальность видимости в метрах или километрах. При видимости от 1 до 10 км при отсутствии осадков обычно наблюдается дымка, при ухудшении видимости до 1 км и менее - туман. В сухую погоду видимость может ухудшаться дымом, пылью или мглою.
Явления - указаны атмосферные явления, наблюдавшиеся в срок или в последний час перед сроком; фигурными скобками обозначены явления, наблюдавшиеся между сроками (за 1-3 часа до срока); квадратными скобками обозначены град или гололедные отложения с указанием их диаметра в мм.
Облачность - указаны через наклонную черту общая и нижняя облачность в баллах и высота нижней границы облаков в метрах; квадратными скобками обозначены формы облаков: Ci - перистые, Cs - перисто-слоистые, Cc - перисто-кучевые, Ac - высококучевые, As - высокослоистые, Sc - слоисто-кучевые, Ns - слоисто-дождевые, Cu - кучевые, Cb - кучево-дождевые. Подробнее классификацию облаков см. в Атласе облаков (PDF).
T - Температура воздуха - температура, измеренная на высоте 2 м над землей.
Td - Температура точки росы - температура, при понижении до которой содержащийся в воздухе водяной пар достигнет насыщения.
f - Относительная влажность воздуха - влажноcть воздуха, измеренная на высоте 2 м над землей.
Te - Эффективная температура - температура, которую ощущает одетый по сезону человек в тени. Характеристика душности погоды. При расчете учитывается влияние влажности воздуха и скорости ветра на теплоощущения человека.
Tes - Эффективная температура на солнце - температура, которую ощущает человек, с поправкой на солнечный нагрев. Характеристика знойности погоды. Зависит от высоты солнца над горизонтом, облачности и скорости ветра. Ночью, в пасмурную погоду, а также при ветре 12 м/с и более поправка равна нулю.
P - Атмосферное давление - приведенное к уровню моря атмосферное давление.
Po - Атмосферное давление - измеренное на уровне метеостанции атмосферное давление.
Tmin - Минимальная температура - минимум температуры воздуха на высоте 2 м над землей.
Tmax - Максимальная температура - максимум температуры воздуха на высоте 2 м над землей.
R - Количество осадков - Количество выпавших осадков за период времени, мм. При наведении курсора мыши на число - период времени, за который выпало указанное количество осадков.
R24 - Количество осадков - Количество выпавших осадков за 24 часа, мм.
S - Снежный покров - Высота снежного покрова, см. При наведении курсора мыши на число - состояние снежного покрова и степень покрытия местности в баллах.